Location: Bucquoy
(50.1391°N, 2.7097°E)
Time: 23:56:33
(UTC+00:00)

MOZ.5/SAFIR/RUBIN 5/SL-8 - Pass Details

Date: 06 May 2021
Orbit: 678 x 704 km, 98.1° (Epoch: 21 June)

Event Time Altitude Azimuth Distance (km) Brightness Sun altitude
Exits shadow 01:24:40 45° 214° (SW) 928 4.0 -19.8°
Maximum altitude 01:25:41 55° 259° (W) 816 3.9 -19.8°
Drops below altitude 10° 01:30:16 10° 338° (NNW) 2,130 6.9 -19.4°
Sets 01:32:33 0° 343° (NNW) 3,050 7.8 -19.3°
